Crystal River Weather Center

Moon Phase Calendar



Online Cameras

 


      

Current Conditions in Crystal River
7/13/2024 9:47:40 PM

82°F
Feels Like 89
Clear
Humidity
82%
Pressure
30.12"
Wind
0
Dew Point
76°F
UV Index
0/10 (Low)
Visibility
6 mi

Hourly Forecast

Date & Time Sat, Jul 13
9:00 PM
Sat, Jul 13
10:00 PM
Sat, Jul 13
11:00 PM
Sun, Jul 14
12:00 AM
Sun, Jul 14
1:00 AM
Sun, Jul 14
2:00 AM
Sun, Jul 14
3:00 AM
Sun, Jul 14
4:00 AM
Sun, Jul 14
5:00 AM
Sun, Jul 14
6:00 AM
Sun, Jul 14
7:00 AM
Sun, Jul 14
8:00 AM
Sun, Jul 14
9:00 AM
Sun, Jul 14
10:00 AM
Sun, Jul 14
11:00 AM
Sun, Jul 14
12:00 PM
Sun, Jul 14
1:00 PM
Sun, Jul 14
2:00 PM
Sun, Jul 14
3:00 PM
Sun, Jul 14
4:00 PM
Sun, Jul 14
5:00 PM
Sun, Jul 14
6:00 PM
Sun, Jul 14
7:00 PM
Sun, Jul 14
8:00 PM
Sun, Jul 14
9:00 PM
Sun, Jul 14
10:00 PM
Sun, Jul 14
11:00 PM
Mon, Jul 15
12:00 AM
Mon, Jul 15
1:00 AM
Mon, Jul 15
2:00 AM
Mon, Jul 15
3:00 AM
Mon, Jul 15
4:00 AM
Mon, Jul 15
5:00 AM
Mon, Jul 15
6:00 AM
Mon, Jul 15
7:00 AM
Mon, Jul 15
8:00 AM
Mon, Jul 15
9:00 AM
Mon, Jul 15
10:00 AM
Mon, Jul 15
11:00 AM
Mon, Jul 15
12:00 PM
Mon, Jul 15
1:00 PM
Mon, Jul 15
2:00 PM
Mon, Jul 15
3:00 PM
Mon, Jul 15
4:00 PM
Mon, Jul 15
5:00 PM
Mon, Jul 15
6:00 PM
Mon, Jul 15
7:00 PM
Mon, Jul 15
8:00 PM
Condition
Clear

Clear

Clear

Clear

Clear

Clear

Clear

Clear

Rain

Rain

Rain

Clouds

Clouds

Clouds

Clouds

Clouds

Clouds

Clouds

Rain

Clouds

Clouds

Clouds

Clouds

Clouds

Rain

Rain

Rain

Clouds

Clouds

Clouds

Clouds

Clouds

Clouds

Clouds

Clouds

Rain

Rain

Rain

Rain

Rain

Rain

Clouds

Clouds

Clouds

Clouds

Clouds

Clouds

Clouds
Temperature 83°F82°F83°F83°F84°F84°F83°F82°F80°F79°F79°F81°F83°F85°F86°F87°F88°F89°F89°F88°F87°F88°F88°F87°F85°F80°F77°F79°F79°F78°F78°F79°F80°F80°F80°F81°F82°F84°F86°F87°F87°F87°F86°F86°F84°F84°F85°F85°F
Feels Like 91°F89°F90°F90°F90°F89°F88°F86°F84°F79°F79°F85°F88°F90°F91°F93°F95°F96°F97°F96°F95°F95°F96°F95°F93°F84°F78°F79°F79°F80°F80°F79°F80°F85°F85°F87°F89°F92°F93°F94°F94°F94°F93°F92°F90°F90°F91°F92°F
Cloudiness 1%0%1%2%4%6%0%0%0%22%38%48%70%69%64%65%63%67%96%97%97%87%89%91%100%100%100%100%100%100%96%98%98%98%99%99%87%90%89%92%94%95%99%99%100%100%100%98%
Visibility 6 mi6 mi6 mi6 mi6 mi6 mi6 mi6 mi6 mi6 mi6 mi6 mi6 mi6 mi6 mi6 mi6 mi6 mi6 mi6 mi6 mi6 mi6 mi6 mi6 mi6 mi6 mi6 mi6 mi6 mi6 mi6 mi6 mi6 mi6 mi6 mi6 mi6 mi6 mi6 mi6 mi6 mi6 mi6 mi6 mi6 mi6 mi6 mi
Precipitation 0%0%0%0%0%0%10%28%92%91%95%80%0%0%0%0%0%0%54%38%2%0%0%0%56%96%100%80%80%80%1%0%0%0%3%35%87%90%95%96%96%78%0%0%0%0%0%0%
Humidity 78%82%78%75%71%67%65%66%73%77%77%75%69%64%61%61%60%58%57%59%62%61%62%66%68%80%90%84%83%82%82%83%82%82%82%80%77%73%67%64%63%62%64%63%65%66%66%67%
Dew Point 75°F76°F75°F74°F73°F71°F70°F70°F70°F71°F71°F72°F72°F71°F71°F72°F72°F72°F72°F72°F73°F73°F73°F74°F74°F73°F73°F73°F73°F72°F72°F73°F74°F74°F74°F74°F74°F74°F73°F73°F73°F72°F72°F72°F72°F72°F72°F73°F
Pressure 30.12"30.12"30.12"30.12"30.12"30.12"30.12"30.09"30.12"30.12"30.12"30.12"30.12"30.12"30.12"30.12"30.12"30.09"30.09"30.06"30.03"30.06"30.06"30.06"30.06"30.09"30.09"30.09"30.06"30.06"30.06"30.03"30.03"30.06"30.06"30.06"30.09"30.09"30.06"30.06"30.06"30.06"30.03"30.03"30"30"30"30"
Wind Speed 7.3 mph7.5 mph7.2 mph6.2 mph5.2 mph5 mph5.1 mph5.5 mph6.1 mph6.7 mph5.6 mph5.4 mph4 mph3 mph3.6 mph4.2 mph6.2 mph8.2 mph10.3 mph11.1 mph12.1 mph9.3 mph9.9 mph7.7 mph4.4 mph13.2 mph10.5 mph5.7 mph8.7 mph9.8 mph6.7 mph8 mph8.8 mph9.7 mph9.6 mph8.8 mph7.6 mph7.1 mph5.2 mph5.9 mph7 mph8.2 mph10 mph7.8 mph3.9 mph4.2 mph4.9 mph2.7 mph
Wind
Direction
291°
WNW
293°
WNW
304°
NW
322°
NW
345°
NNW

N
19°
NNE
56°
NE
89°
E
101°
E
111°
ESE
126°
SE
99°
E
118°
ESE
168°
SSE
220°
SW
227°
SW
225°
SW
228°
SW
241°
WSW
255°
WSW
253°
WSW
261°
W
267°
W
274°
W
61°
ENE
85°
E
94°
E
130°
SE
136°
SE
141°
SE
157°
SSE
172°
S
175°
S
168°
SSE
161°
SSE
150°
SSE
144°
SE
173°
S
210°
SSW
206°
SSW
188°
S
178°
S
187°
S
207°
SSW
238°
WSW
229°
SW
254°
WSW

Daily Forecast

Date High Low Precip. Humidity
Today
Jul 13

Rain
90 °F
82 °F
96%
57%
Sunday
Jul 14

Rain
89 °F
77 °F
100%
60%
Monday
Jul 15

Rain
87 °F
78 °F
96%
63%
Tuesday
Jul 16

Rain
90 °F
77 °F
100%
65%
Wednesday
Jul 17

Rain
88 °F
78 °F
70%
62%
Thursday
Jul 18

Rain
87 °F
79 °F
100%
64%
Friday
Jul 19

Rain
88 °F
79 °F
100%
61%
Saturday
Jul 20

Rain
88 °F
80 °F
100%
61%
Sunday
Jul 21

Rain
88 °F
77 °F
100%
59%
Monday
Jul 22

Rain
87 °F
78 °F
92%
62%
Tuesday
Jul 23

Rain
86 °F
80 °F
100%
64%
Wednesday
Jul 24

Rain
84 °F
80 °F
100%
72%
Thursday
Jul 25

Rain
86 °F
81 °F
100%
64%
Friday
Jul 26

Rain
86 °F
79 °F
90%
61%
Saturday
Jul 27

Rain
87 °F
77 °F
100%
71%
Sunday
Jul 28

Clear
88 °F
77 °F
0%
64%

Temperature 8-14 Day Outlook



Precipitation 8-14 Day Outlook






About Us
Contact Us
Site Map
Search Site
Advertise With Us
   
CrystalRiver.USGulf.info
THE CRYSTAL RIVER WEBSITE

Copyright 2024, Coastal Town
Privacy    |    Legal